Regional Weather Roundup
Issued by NWS

Home | Current Version | Previous Version | Text Only | Print | Product List | Glossary Off
Versions: 1 2 3 4 5 6 7 8 9 10 11 12 13 14 15 16 17 18 19 20 21 22 23 24 25 26 27 28 29 30 31 32 33 34 35 36 37 38 39 40 41 42 43 44 45 46 47 48 49 50

000
ASUS43 KLMK 230902
RWRKY
KENTUCKY REGIONAL WEATHER ROUNDUP
NATIONAL WEATHER SERVICE LOUISVILLE KY
400 AM EST SUN NOV 23 2014

NOTE "FAIR" INDICATES FEW OR NO CLOUDS BELOW 12,000 FEET
WITH NO SIGNIFICANT WEATHER AND/OR OBSTRUCTIONS TO VISIBILITY.

KYZ001>023-026-027-061>063-070>075-231000-
WESTERN AND SOUTH CENTRAL KENTUCKY

CITY           SKY/WX    TMP DP  RH WIND       PRES   REMARKS
PADUCAH        PTCLDY    51  43  74 SE7       29.89F
HENDERSON      PTCLDY    52  37  58 SE7       29.93F
OWENSBORO      CLEAR     49  40  71 MISG      29.97F
HOPKINSVILLE   CLOUDY    54  41  61 SE5       29.94F
BOWLING GREEN  PTCLDY    51  37  58 E5        30.00F
GLASGOW        NOT AVBL
$$

KYZ024-025-028>034-038-045-046-053-231000-
NORTH CENTRAL KENTUCKY

CITY           SKY/WX    TMP DP  RH WIND       PRES   REMARKS
LOUISVILLE/SDF CLOUDY    56  38  50 S12       30.01F
LOUISVILLE/LOU CLOUDY    53  38  56 S7        30.01F
FORT KNOX      MOCLDY    53  37  56 SE10      30.00F
$$

KYZ035>037-039>044-047>052-055>060-089>105-231000-
NORTHEAST KENTUCKY

CITY           SKY/WX    TMP DP  RH WIND       PRES   REMARKS
LEXINGTON      CLOUDY    52  38  58 S9        30.05F
COVINGTON      CLOUDY    52  36  54 S9        30.02F
FRANKFORT      CLOUDY    49  38  65 SE7       30.03F
$$

KYZ054-064>069-076>088-106>120-231000-
SOUTHEAST KENTUCKY

CITY           SKY/WX    TMP DP  RH WIND       PRES   REMARKS
JACKSON        CLOUDY    52  31  44 CALM      30.09F
LONDON         PTCLDY    44  33  65 SE5       30.08F
SOMERSET       NOT AVBL
MIDDLESBORO    MOCLDY    36  32  87 CALM      30.14F
MONTICELLO     MOSUNNY   53  38  56 VRB3      30.08F
$$




USA.gov is the U.S. government's official web portal to all federal, state and local government web resources and services.